Cloud_Cover
100 100 100 100 100 99 54 72 69 75 98 100 100 100 100 100 100 100 100 100 100 100 100 100 100 100 100 100 100 100 96 72
98 100 100 100 64 95 100 100 100 100 100 100 100 100 100 100 100 100 97 52 100 100 100 100 100 100 100 100 100 100 100 100
100 100 100 100 100 100 100 100 100 100 100 70 77 99 100 100 100 100 100 98 34 9 50 100 100 100 100 100 100 100 100 100
100 100 100 100 100 100 100 100 100 100 100 100 97 92 100 100 100 100 96 100 100 84 27 100 100 100 100 100 100 100 100 100
6 5 6 100 100 100 100 100 100 100 100 100 61 10 40 100 100 100 100 100 100 100 84 60 100 100 100 100 100 100 100 100
24 26 5 82 14 49 100 100 100 100 100 100 53 23 2 75 100 100 100 100 100 100 100 98 100 100 100 100 100 100 100 100
100 23 20 89 95 16 100 98 100 100 100 100 100 53 59 14 100 100 100 100 100 100 100 100 100 100 100 100 100 100 100 100
26 60 60 30 97 100 100 100 100 100 100 100 100 100 75 58 60 41 100 100 100 100 100 100 100 100 100 100 100 100 100 100
45 49 100 100 84 100 78 100 100 100 100 100 100 100 88 42 96 65 100 100 100 100 100 100 100 100 100 100 100 100 100 100
100 100 100 100 100 100 100 100 100 100 100 100 100 100 100 100 100 100 100 100 100 100 100 100 100 100 100 100 100 100 100 100
100 100 100 100 100 100 100 100 100 100 100 100 100 100 100 100 100 100 100 100 100 100 100 100 100 100 100 100 100 100 100 100
100 100 100 100 100 100 92 100 100 100 100 100 100 100 100 100 100 100 100 100 100 100 100 100 100 100 100 100 100 100 100 100
82 58 100 100 100 100 100 100 100 100 98 100 100 100 100 100 100 100 100 100 100 100 100 100 100 100 100 100 100 100 100 100
55 90 63 100 100 100 100 86 100 100 100 100 100 100 100 100 100 100 100 100 100 100 100 100 100 100 100 100 100 100 100 100
100 100 100 100 100 100 100 100 100 100 100 100 100 100 100 100 100 100 100 100 100 100 100 100 100 100 100 100 100 100 100 100
100 100 100 100 100 100 100 100 100 100 100 98 100 100 100 100 100 100 100 100 100 100 100 100 100 100 100 100 100 100 100 100
100 100 100 100 100 100 100 100 100 100 100 100 100 100 100 100 100 100 100 100 100 100 100 100 100 100 100 100 100 100 100 100
99 100 100 100 100 100 100 100 100 100 100 100 100 100 100 100 100 100 100 100 100 100 100 100 100 100 100 100 100 100 100 100
60 100 100 100 100 100 100 100 100 100 100 100 100 100 100 100 100 100 100 100 100 100 100 100 100 100 100 100 100 100 100 100